VRE241 DIAP-DGAA

Flight info

Callsign VRE241
Flight time N/A
Altitude 29000
Route AD UB600 MIMTI MIMTI1B
Aircraft A339/H-SADE1E2E3GHIJ3J5M1P2RWXY/LB2D1

Departure

Time 2026-05-04 23:29
Airport Félix-Houphouët-Boigny International Airport (DIAP)

Arrival

Time N/A
Airport Kotoka International Airport (DGAA)
Time Latitude Longitude Altitude Speed Heading
2026-05-04 22:57 5.25611 -3.93108 26 ft 0 kts 292°
2026-05-04 23:19 5.25602 -3.93088 31 ft 4 kts 301°
2026-05-04 23:20 5.25588 -3.93067 30 ft 4 kts 313°
2026-05-04 23:20 5.25574 -3.93052 30 ft 3 kts 332°
2026-05-04 23:20 5.25552 -3.93042 28 ft 3 kts 355°
2026-05-04 23:20 5.25531 -3.93041 29 ft 2 kts
2026-05-04 23:21 5.25517 -3.93044 28 ft 2 kts 15°
2026-05-04 23:21 5.25507 -3.93047 28 ft 2 kts 18°
2026-05-04 23:21 5.25496 -3.93050 28 ft 2 kts 20°
2026-05-04 23:21 5.25486 -3.93054 28 ft 1 kts 21°
2026-05-04 23:22 5.25477 -3.93058 28 ft 1 kts 22°
2026-05-04 23:22 5.25475 -3.93059 28 ft 0 kts 23°
2026-05-04 23:24 5.25472 -3.93060 28 ft 1 kts 23°
2026-05-04 23:24 5.25467 -3.93062 28 ft 5 kts 23°
2026-05-04 23:24 5.25521 -3.93046 27 ft 10 kts
2026-05-04 23:24 5.25596 -3.93028 30 ft 12 kts 26°
2026-05-04 23:25 5.25669 -3.92974 27 ft 14 kts 37°
2026-05-04 23:25 5.25777 -3.92923 28 ft 20 kts 22°
2026-05-04 23:25 5.25914 -3.92864 29 ft 22 kts 20°
2026-05-04 23:25 5.26063 -3.92809 30 ft 25 kts 22°
2026-05-04 23:26 5.26212 -3.92747 28 ft 0 kts 22°
2026-05-04 23:26 5.26241 -3.92713 27 ft 14 kts 66°
2026-05-04 23:26 5.26228 -3.92645 27 ft 0 kts 107°
2026-05-04 23:26 5.26205 -3.92581 27 ft 9 kts 119°
2026-05-04 23:27 5.26126 -3.92568 27 ft 21 kts 198°
2026-05-04 23:27 5.26108 -3.92581 27 ft 0 kts 213°
2026-05-04 23:28 5.26107 -3.92581 27 ft 2 kts 213°
2026-05-04 23:28 5.25838 -3.92714 28 ft 100 kts 204°
2026-05-04 23:29 5.24865 -3.93118 169 ft 184 kts 205°
2026-05-04 23:29 5.23670 -3.93660 1260 ft 189 kts 208°
2026-05-04 23:29 5.22450 -3.94189 2530 ft 196 kts 205°
2026-05-04 23:29 5.21046 -3.94430 3352 ft 222 kts 179°
2026-05-04 23:30 5.19504 -3.93905 4059 ft 249 kts 150°
2026-05-04 23:30 5.18263 -3.92607 4724 ft 268 kts 122°
2026-05-04 23:30 5.17722 -3.90796 5546 ft 275 kts 94°
2026-05-04 23:30 5.18013 -3.88890 6184 ft 287 kts 67°
2026-05-04 23:31 5.18876 -3.87078 7129 ft 290 kts 61°
2026-05-04 23:31 5.19719 -3.85218 8081 ft 295 kts 66°
2026-05-04 23:31 5.20369 -3.83251 9041 ft 299 kts 73°
2026-05-04 23:31 5.20852 -3.81203 9985 ft 303 kts 77°
2026-05-04 23:32 5.21216 -3.79267 10611 ft 318 kts 79°
2026-05-04 23:32 5.21596 -3.77025 10981 ft 341 kts 79°
2026-05-04 23:32 5.21998 -3.74600 11484 ft 357 kts 80°
2026-05-04 23:32 5.22411 -3.72123 12309 ft 362 kts 79°
2026-05-04 23:33 5.22837 -3.69616 13126 ft 366 kts 79°
2026-05-04 23:33 5.23272 -3.67081 13920 ft 370 kts 79°
2026-05-04 23:33 5.23709 -3.64549 14695 ft 374 kts 79°
2026-05-04 23:33 5.24157 -3.61958 15479 ft 379 kts 79°
2026-05-04 23:34 5.24609 -3.59342 16253 ft 383 kts 79°
2026-05-04 23:34 5.25070 -3.56684 16985 ft 387 kts 79°
2026-05-04 23:34 5.25536 -3.53997 17690 ft 391 kts 79°
2026-05-04 23:34 5.25999 -3.51326 18366 ft 395 kts 79°
2026-05-04 23:35 5.26473 -3.48586 19045 ft 399 kts 79°
2026-05-04 23:35 5.26952 -3.45813 19731 ft 403 kts 79°
2026-05-04 23:35 5.27429 -3.43055 20380 ft 408 kts 79°
2026-05-04 23:35 5.27917 -3.40233 21072 ft 412 kts 79°
2026-05-04 23:36 5.28408 -3.37385 21740 ft 416 kts 79°
2026-05-04 23:36 5.28907 -3.34505 22402 ft 419 kts 79°
2026-05-04 23:36 5.29410 -3.31608 23030 ft 423 kts 79°
2026-05-04 23:36 5.29917 -3.28684 23644 ft 427 kts 79°
2026-05-04 23:37 5.30428 -3.25728 24263 ft 431 kts 79°
2026-05-04 23:37 5.30944 -3.22748 24869 ft 435 kts 79°
2026-05-04 23:37 5.31457 -3.19788 25434 ft 439 kts 79°
2026-05-04 23:37 5.31982 -3.16756 25996 ft 442 kts 79°
2026-05-04 23:38 5.32511 -3.13700 26552 ft 446 kts 79°
2026-05-04 23:38 5.33045 -3.10611 27079 ft 450 kts 79°
2026-05-04 23:38 5.33584 -3.07498 27608 ft 454 kts 80°
2026-05-04 23:38 5.34125 -3.04361 28109 ft 458 kts 79°
2026-05-04 23:39 5.34671 -3.01204 28608 ft 461 kts 79°
2026-05-04 23:39 5.35227 -2.97996 28767 ft 472 kts 79°
2026-05-04 23:39 5.36368 -2.91388 28980 ft 494 kts 80°
2026-05-04 23:40 5.37562 -2.84477 29000 ft 508 kts 80°
2026-05-04 23:40 5.38571 -2.78622 29001 ft 512 kts 79°
2026-05-04 23:41 5.39488 -2.71516 29001 ft 513 kts 85°
2026-05-04 23:41 5.40131 -2.64363 28999 ft 514 kts 84°
2026-05-04 23:42 5.40783 -2.57251 29000 ft 515 kts 84°
2026-05-04 23:42 5.41441 -2.50089 28999 ft 515 kts 84°
2026-05-04 23:43 5.42099 -2.42910 29000 ft 515 kts 84°
2026-05-04 23:43 5.42752 -2.35775 29000 ft 515 kts 84°
2026-05-04 23:44 5.43409 -2.28602 29001 ft 515 kts 84°
2026-05-04 23:44 5.44062 -2.21430 28999 ft 515 kts 84°
2026-05-04 23:45 5.44711 -2.14311 29001 ft 515 kts 84°
2026-05-04 23:45 5.45361 -2.07138 29000 ft 515 kts 84°
2026-05-04 23:46 5.46013 -1.99970 28999 ft 515 kts 84°
2026-05-04 23:46 5.46660 -1.92835 28997 ft 516 kts 84°
2026-05-04 23:47 5.47314 -1.85651 28998 ft 516 kts 84°
2026-05-04 23:47 5.47960 -1.78518 29000 ft 515 kts 84°
2026-05-04 23:48 5.48607 -1.71357 28999 ft 515 kts 84°
2026-05-04 23:48 5.49274 -1.64172 29002 ft 515 kts 84°
2026-05-04 23:49 5.49961 -1.57018 29007 ft 515 kts 84°
2026-05-04 23:49 5.50641 -1.49897 28999 ft 515 kts 84°
2026-05-04 23:50 5.51320 -1.42735 29000 ft 515 kts 84°
2026-05-04 23:50 5.52000 -1.35558 29000 ft 515 kts 84°
2026-05-04 23:51 5.52675 -1.28426 29000 ft 515 kts 84°
2026-05-04 23:51 5.53350 -1.21258 29000 ft 516 kts 84°
2026-05-04 23:52 5.54020 -1.14123 28992 ft 515 kts 84°
2026-05-04 23:52 5.54785 -1.06965 28938 ft 516 kts 83°
2026-05-04 23:53 5.55575 -0.99794 28875 ft 516 kts 83°
2026-05-04 23:53 5.56352 -0.92623 28815 ft 516 kts 83°
2026-05-04 23:54 5.57119 -0.85481 28760 ft 517 kts 83°
2026-05-04 23:54 5.57890 -0.78290 28696 ft 517 kts 83°
2026-05-04 23:55 5.58660 -0.71108 28633 ft 516 kts 84°
2026-05-04 23:56 5.59806 -0.60401 28538 ft 514 kts 83°
2026-05-04 23:56 5.60186 -0.56857 28436 ft 506 kts 84°
2026-05-04 23:56 5.60560 -0.53355 28327 ft 502 kts 84°
2026-05-04 23:56 5.60932 -0.49867 28165 ft 501 kts 84°
2026-05-04 23:57 5.61306 -0.46358 28115 ft 509 kts 84°
2026-05-04 23:57 5.63007 -0.39587 28069 ft 513 kts 68°
2026-05-04 23:58 5.65696 -0.32970 28016 ft 515 kts 66°
2026-05-04 23:58 5.67084 -0.29641 27978 ft 516 kts 66°
2026-05-04 23:58 5.68543 -0.26352 27953 ft 515 kts 62°
2026-05-04 23:58 5.70484 -0.23334 27929 ft 514 kts 51°
2026-05-04 23:59 5.72935 -0.20727 27889 ft 512 kts 40°
2026-05-04 23:59 5.75749 -0.18657 27825 ft 508 kts 30°
2026-05-04 23:59 5.77848 -0.17567 27803 ft 507 kts 22°